User: anonymous   Login
Location: Newark
(35.0167°N, 135.7667°E)
Time: 12:49:28
(UTC+00:00)
Language:

N. Korean satellite - Orbit

View from above orbital plane
View from above orbital plane
View from above satellite
View from above satellite

Ground track
Ground track

The orbit data is extracted from the following two-line orbital elements,

1 39026U 12072A   19325.78822292 +.00001435 +00000-0 +53965-4 0  9997
2 39026 097.2159 323.9533 0035943 266.2662 093.4467 15.28186337385370
Epoch (UTC): 21 November 2019 18:55:02
Eccentricity: 0.0035943
inclination: 97.2159°
perigee height: 456 km
apogee height: 506 km
right ascension of ascending node: 323.9533°
argument of perigee: 266.2662°
revolutions per day: 15.28186337
mean anomaly at epoch: 93.4467°
orbit number at epoch: 38537

The dashed part of the orbit path shows where the satellite is in the earth's shadow,  

DLR